TimeEST,TemperatureF,Dew PointF,Humidity,Sea Level PressureIn,VisibilityMPH,Wind Direction,Wind SpeedMPH,Gust SpeedMPH,PrecipitationIn,Events,Conditions,WindDirDegrees,DateUTC
12:53 AM,73.9,69.1,85,29.98,10.0,SE,12.7,-,N/A,,Clear,140,2013-12-29 05:53:00
1:53 AM,73.9,69.1,85,29.97,10.0,SSE,13.8,-,N/A,,Clear,150,2013-12-29 06:53:00
2:53 AM,73.9,69.1,85,29.95,10.0,SSE,13.8,-,N/A,,Clear,150,2013-12-29 07:53:00
3:53 AM,73.9,70.0,87,29.92,10.0,SSE,10.4,-,0.00,,Scattered Clouds,150,2013-12-29 08:53:00
4:53 AM,73.9,71.1,91,29.92,10.0,South,13.8,-,0.00,Rain,Light Rain,170,2013-12-29 09:53:00
5:53 AM,73.9,71.1,91,29.95,10.0,South,18.4,27.6,0.02,Rain,Light Rain,170,2013-12-29 10:53:00
6:53 AM,73.9,71.1,91,29.93,7.0,South,17.3,-,0.08,Rain,Light Rain,170,2013-12-29 11:53:00
7:15 AM,73.4,71.6,94,29.94,10.0,South,19.6,26.5,0.00,,Mostly Cloudy,180,2013-12-29 12:15:00
7:29 AM,73.4,71.6,94,29.94,10.0,South,17.3,25.3,0.00,Rain,Light Rain,180,2013-12-29 12:29:00
7:39 AM,73.4,71.6,94,29.95,10.0,South,16.1,-,0.00,Rain,Light Rain,170,2013-12-29 12:39:00
7:53 AM,73.0,70.0,90,29.94,10.0,SSE,12.7,-,0.01,Rain,Light Rain,160,2013-12-29 12:53:00
8:11 AM,73.4,71.6,94,29.96,10.0,South,11.5,-,0.00,,Scattered Clouds,180,2013-12-29 13:11:00
8:26 AM,73.4,69.8,88,29.97,10.0,South,15.0,-,0.00,,Mostly Cloudy,180,2013-12-29 13:26:00
8:53 AM,73.0,69.1,87,29.97,10.0,South,11.5,-,0.00,Rain,Light Rain,180,2013-12-29 13:53:00
9:49 AM,71.6,69.8,94,30.01,10.0,SW,4.6,-,0.00,Rain,Light Rain,230,2013-12-29 14:49:00
9:53 AM,72.0,69.1,91,30.01,9.0,SW,4.6,-,0.00,Rain,Light Rain,220,2013-12-29 14:53:00
10:10 AM,71.6,69.8,94,29.99,10.0,SSE,9.2,-,0.00,,Overcast,160,2013-12-29 15:10:00
10:53 AM,75.0,72.0,90,29.98,10.0,South,10.4,-,0.00,,Scattered Clouds,190,2013-12-29 15:53:00
11:53 AM,75.0,70.0,84,29.97,9.0,SSW,9.2,-,0.01,Rain,Light Rain,200,2013-12-29 16:53:00
12:25 PM,73.4,69.8,88,29.95,5.0,South,9.2,-,0.03,Rain,Light Rain,190,2013-12-29 17:25:00
12:53 PM,73.9,71.1,91,29.92,10.0,South,11.5,-,0.05,,Overcast,180,2013-12-29 17:53:00
1:00 PM,73.4,71.6,94,29.92,10.0,South,13.8,-,N/A,,Overcast,180,2013-12-29 18:00:00
1:20 PM,75.2,71.6,89,29.90,10.0,South,15.0,-,N/A,,Overcast,170,2013-12-29 18:20:00
1:35 PM,75.2,71.6,89,29.90,10.0,South,12.7,-,N/A,,Overcast,190,2013-12-29 18:35:00
1:53 PM,75.0,71.1,87,29.90,10.0,South,15.0,19.6,N/A,,Overcast,180,2013-12-29 18:53:00
2:27 PM,75.2,69.8,83,29.89,10.0,South,15.0,-,N/A,,Overcast,190,2013-12-29 19:27:00
2:53 PM,73.0,70.0,90,29.89,5.0,South,13.8,20.7,0.01,Rain,Light Rain,190,2013-12-29 19:53:00
3:42 PM,73.4,69.8,88,29.89,10.0,South,15.0,-,0.00,,Overcast,190,2013-12-29 20:42:00
3:53 PM,73.9,70.0,87,29.89,10.0,South,13.8,21.9,0.00,,Overcast,190,2013-12-29 20:53:00
4:10 PM,71.6,68.0,88,29.91,5.0,West,16.1,23.0,0.00,Rain,Light Rain,280,2013-12-29 21:10:00
4:15 PM,69.8,66.2,88,29.92,4.0,NW,21.9,26.5,0.00,Rain,Light Rain,310,2013-12-29 21:15:00
4:22 PM,66.2,64.4,94,29.92,6.0,NW,19.6,27.6,0.00,Rain,Light Rain,310,2013-12-29 21:22:00
4:33 PM,66.2,64.4,94,29.93,8.0,NNW,18.4,24.2,0.00,,Overcast,330,2013-12-29 21:33:00
4:47 PM,66.2,62.6,88,29.93,9.0,NNW,16.1,25.3,0.00,,Overcast,330,2013-12-29 21:47:00
4:53 PM,66.0,63.0,90,29.94,9.0,NNW,13.8,25.3,0.00,,Overcast,330,2013-12-29 21:53:00
5:00 PM,66.2,62.6,88,29.94,10.0,NNW,11.5,21.9,N/A,,Overcast,330,2013-12-29 22:00:00
5:19 PM,66.2,62.6,88,29.95,10.0,NNW,12.7,21.9,N/A,,Overcast,340,2013-12-29 22:19:00
5:45 PM,66.2,62.6,88,29.95,10.0,North,10.4,-,N/A,,Overcast,350,2013-12-29 22:45:00
5:53 PM,66.0,62.1,87,29.96,10.0,North,8.1,-,N/A,,Overcast,350,2013-12-29 22:53:00
6:53 PM,66.0,62.1,87,29.97,10.0,North,3.5,-,N/A,,Overcast,360,2013-12-29 23:53:00
7:53 PM,66.0,62.1,87,30.00,10.0,WNW,4.6,-,N/A,,Overcast,300,2013-12-30 00:53:00
8:53 PM,66.0,61.0,84,30.00,10.0,NNW,5.8,-,N/A,,Mostly Cloudy,330,2013-12-30 01:53:00
9:53 PM,64.9,62.1,90,30.01,10.0,NNW,4.6,-,N/A,,Clear,330,2013-12-30 02:53:00
10:53 PM,64.0,61.0,90,30.01,10.0,NW,5.8,-,N/A,,Clear,320,2013-12-30 03:53:00
11:53 PM,64.9,61.0,87,30.01,10.0,NNW,8.1,-,N/A,,Clear,340,2013-12-30 04:53:00